This is the latest recevied weather packets stored in our database for station/object CALDNA-WX. If no packets are shown the sender has not sent any weather packets the latest 10 day(s).
| Time | Temp. | Humidity | Pressure | Rain* | Wind** | Luminosity | Snow |
|---|---|---|---|---|---|---|---|
| 1777641322 | 5° C | 62% | 987.5 hPa | 0 mm | - | - | - |
| 1777640447 | 4.44° C | 62% | 987.5 hPa | 0 mm | - | - | - |
| 1777639521 | 3.89° C | 66% | 987.2 hPa | 0 mm | - | - | - |
| 1777638639 | 3.89° C | 69% | 987.1 hPa | 0 mm | - | - | - |
| 1777637721 | 3.33° C | 69% | 987.1 hPa | 0 mm | - | - | - |
| 1777636849 | 3.33° C | 69% | 987.1 hPa | 0 mm | - | - | - |
| 1777635921 | 2.78° C | 70% | 986.4 hPa | 0 mm | - | - | - |
| 1777635038 | 2.78° C | 76% | 986.4 hPa | 0 mm | - | - | - |
| 1777634121 | 3.33° C | 76% | 986.5 hPa | 0 mm | - | - | - |
| 1777633248 | 3.33° C | 76% | 986.5 hPa | 0 mm | - | - | - |
| 1777632321 | 3.33° C | 71% | 986.1 hPa | 0 mm | - | - | - |
| 1777631439 | 3.33° C | 76% | 986.8 hPa | 0 mm | - | - | - |
| 1777630521 | 2.78° C | 76% | 986.8 hPa | 0 mm | - | - | - |
| 1777629649 | 2.78° C | 76% | 986.8 hPa | 0 mm | - | - | - |
| 1777628721 | 2.78° C | 75% | 987.1 hPa | 0 mm | - | - | - |
| 1777627837 | 2.78° C | 82% | 986.9 hPa | 0 mm | - | - | - |
| 1777626921 | 2.22° C | 82% | 986.9 hPa | 0 mm | - | - | - |
| 1777626045 | 2.22° C | 82% | 986.9 hPa | 0 mm | - | - | - |
| 1777625121 | 2.22° C | 76% | 986.7 hPa | 0 mm | - | - | - |
| 1777624235 | 2.22° C | 87% | 986.4 hPa | 0 mm | - | - | - |
| 1777623321 | 3.33° C | 87% | 986.4 hPa | 0 mm | - | - | - |
| 1777622448 | 3.33° C | 87% | 986.4 hPa | 0 mm | - | - | - |
| 1777621521 | 3.33° C | 86% | 986.8 hPa | 0 mm | - | - | - |
| 1777620639 | 3.33° C | 86% | 986.8 hPa | 0 mm | - | - | - |
| 1777619721 | 3.89° C | 86% | 986.8 hPa | 0 mm | - | - | - |
* Rain latest hour (hover to see other rain measurements)
** Current wind speed in m/s (hover to see current wind gust speed)